Total_Precipitation_Accumulation
0.00 0.01 0.01 0.01 0.01 0.02 0.04 0.10 0.21 0.20 0.18 0.25 0.34 0.55 0.75 0.83 0.99 1.29 1.50 1.50 1.46 1.76 2.25 2.65 2.96 3.11 3.45 3.66 3.83 3.84 4.07 4.48 4.82 4.68 4.36 4.17 3.92 3.70 3.47 3.20 3.09 3.11 3.10 3.30
0.00 0.01 0.01 0.01 0.01 0.02 0.04 0.08 0.18 0.20 0.20 0.31 0.45 0.68 0.85 1.05 1.27 1.36 1.29 1.28 1.43 1.81 2.32 2.70 2.99 3.15 3.42 3.69 4.12 4.25 4.46 4.82 4.95 4.82 4.69 4.53 4.39 3.98 3.84 3.69 3.51 3.14 2.95 3.06
0.01 0.01 0.01 0.01 0.02 0.03 0.05 0.10 0.16 0.17 0.25 0.41 0.53 0.96 1.13 1.29 1.41 1.39 1.32 1.53 1.54 1.63 2.05 2.34 2.46 2.66 2.84 2.99 3.24 3.54 4.04 4.55 4.75 4.82 4.73 4.68 4.69 4.22 3.95 3.80 3.62 3.24 2.96 2.84
0.01 0.01 0.01 0.02 0.03 0.03 0.07 0.08 0.09 0.13 0.25 0.53 0.62 1.23 1.42 1.62 1.72 1.59 1.52 1.46 1.45 1.69 2.00 2.02 1.85 2.01 2.28 2.27 2.58 3.01 3.47 3.83 4.06 4.15 4.16 4.21 4.16 4.07 3.98 3.84 3.46 3.21 2.95 2.81
0.02 0.02 0.02 0.04 0.03 0.03 0.06 0.07 0.10 0.15 0.28 0.52 0.55 0.92 1.45 1.81 1.99 1.61 1.51 1.38 1.45 1.67 1.71 1.67 1.68 1.80 1.96 2.12 2.43 2.75 3.08 3.38 3.54 3.65 3.73 3.84 3.73 3.75 3.65 3.47 3.26 3.05 2.87 2.71
0.03 0.04 0.04 0.04 0.04 0.05 0.06 0.10 0.19 0.27 0.49 0.87 0.71 0.83 1.39 1.75 1.61 1.40 1.33 1.12 1.23 1.42 1.51 1.56 1.65 1.78 1.90 2.20 2.55 2.85 3.09 3.31 3.38 3.17 3.08 3.10 3.16 3.22 3.17 3.02 2.85 2.63 2.56 2.46
0.13 0.11 0.08 0.06 0.07 0.09 0.09 0.20 0.66 1.09 1.42 1.32 0.81 0.92 1.51 1.40 1.06 0.99 1.07 1.05 1.05 1.09 1.23 1.35 1.54 1.74 1.92 2.03 2.13 2.57 3.00 3.17 3.08 2.83 2.64 2.57 2.71 2.83 2.75 2.64 2.56 2.47 2.33 2.24
0.28 0.26 0.14 0.10 0.14 0.15 0.14 0.26 0.75 1.05 1.15 1.13 0.91 1.31 1.80 1.39 0.95 0.81 0.91 0.90 0.79 0.75 0.73 0.81 0.99 1.11 1.26 1.31 1.33 1.51 1.79 2.03 2.11 2.01 2.03 2.09 2.13 2.21 2.21 2.40 2.25 2.23 2.17 2.05
0.17 0.16 0.12 0.14 0.19 0.19 0.25 0.30 0.32 0.55 0.76 1.16 1.17 1.37 1.47 1.20 0.95 0.90 0.98 0.89 0.71 0.67 0.63 0.69 0.79 0.85 0.95 0.98 1.02 1.16 1.41 1.65 1.69 1.71 1.76 1.81 1.82 1.87 1.90 1.96 1.92 1.89 1.95 1.90
0.11 0.12 0.13 0.13 0.17 0.20 0.22 0.30 0.46 0.73 0.97 1.13 1.22 1.59 1.75 1.56 1.29 1.12 1.07 0.94 0.72 0.60 0.58 0.65 0.76 0.80 0.90 1.01 1.16 1.28 1.39 1.50 1.50 1.51 1.52 1.48 1.58 1.60 1.65 1.65 1.59 1.61 1.68 1.70
0.09 0.10 0.14 0.21 0.24 0.24 0.26 0.33 0.49 0.68 0.74 0.96 1.34 1.50 1.26 1.23 1.22 1.28 1.23 1.02 0.78 0.60 0.54 0.60 0.72 0.79 0.86 0.99 1.13 1.27 1.36 1.45 1.43 1.39 1.46 1.52 1.53 1.57 1.55 1.52 1.45 1.51 1.59 1.63
0.10 0.12 0.18 0.27 0.23 0.18 0.24 0.35 0.50 0.76 0.81 0.84 1.01 1.17 0.79 0.82 0.94 1.03 1.04 0.83 0.65 0.58 0.56 0.64 0.75 0.80 0.94 1.01 1.07 1.10 1.20 1.33 1.34 1.36 1.49 1.68 1.65 1.65 1.62 1.49 1.43 1.49 1.50 1.54
0.16 0.16 0.30 0.57 0.53 0.29 0.28 0.27 0.37 0.52 0.64 0.74 0.97 1.15 0.75 0.77 0.93 0.94 0.92 0.81 0.73 0.69 0.68 0.75 0.80 0.79 0.89 1.00 1.04 1.05 1.12 1.25 1.41 1.45 1.52 1.65 1.67 1.63 1.54 1.45 1.42 1.44 1.45 1.49
0.14 0.16 0.27 0.65 0.69 0.46 0.33 0.30 0.33 0.46 0.58 0.56 0.60 0.83 0.83 0.82 0.95 0.96 0.96 0.93 0.91 0.80 0.78 0.89 0.96 0.88 0.88 0.91 0.92 0.94 1.07 1.21 1.25 1.26 1.32 1.41 1.37 1.38 1.40 1.41 1.40 1.38 1.43 1.47
0.14 0.18 0.19 0.29 0.40 0.43 0.39 0.32 0.29 0.32 0.35 0.48 0.56 0.75 0.92 0.93 0.97 0.86 0.82 0.85 0.86 0.82 0.78 0.84 0.78 0.72 0.72 0.73 0.75 0.80 0.83 0.95 1.10 1.19 1.24 1.33 1.39 1.40 1.42 1.37 1.32 1.38 1.44 1.41
0.21 0.26 0.25 0.32 0.40 0.45 0.43 0.38 0.31 0.29 0.28 0.35 0.48 0.68 0.75 0.81 0.86 0.89 0.86 0.88 0.82 0.74 0.75 0.69 0.57 0.51 0.55 0.61 0.65 0.70 0.73 0.81 0.94 0.98 1.08 1.30 1.45 1.47 1.45 1.35 1.35 1.41 1.47 1.54
0.32 0.37 0.36 0.40 0.49 0.61 0.63 0.39 0.35 0.36 0.33 0.45 0.72 0.83 0.83 0.96 0.97 0.89 0.83 0.80 0.72 0.65 0.63 0.59 0.51 0.50 0.55 0.60 0.66 0.72 0.79 0.82 0.89 0.96 1.05 1.14 1.27 1.34 1.29 1.23 1.28 1.32 1.40 1.53
0.39 0.55 0.57 0.54 0.72 0.91 0.73 0.43 0.37 0.41 0.40 0.41 0.56 0.67 0.74 0.96 1.02 0.81 0.69 0.68 0.66 0.62 0.57 0.56 0.57 0.58 0.69 0.69 0.73 0.86 0.99 1.00 1.02 1.12 1.19 1.18 1.25 1.37 1.39 1.36 1.39 1.48 1.54 1.57
0.33 0.53 0.61 0.68 0.84 0.86 0.73 0.58 0.51 0.57 0.65 0.48 0.52 0.59 0.66 0.69 0.81 0.86 0.68 0.69 0.69 0.60 0.59 0.59 0.62 0.70 0.83 0.83 0.86 1.01 1.06 1.11 1.16 1.21 1.31 1.36 1.41 1.52 1.57 1.57 1.64 1.72 1.79 1.69
0.43 0.56 0.72 0.70 0.89 1.04 0.85 0.68 0.60 0.70 1.14 0.76 0.58 0.53 0.63 0.68 1.02 1.08 0.80 0.69 0.68 0.67 0.72 0.77 0.76 0.83 0.90 0.98 1.12 1.22 1.26 1.34 1.41 1.38 1.41 1.51 1.64 1.72 1.78 1.96 2.19 2.26 2.26 2.13
0.86 0.89 0.89 0.87 0.95 0.96 0.81 0.67 0.68 1.17 1.43 0.89 0.71 0.61 0.66 0.74 0.88 0.93 0.78 0.70 0.70 0.76 0.87 0.99 1.11 1.18 1.20 1.13 1.22 1.39 1.57 1.65 1.66 1.77 1.81 1.84 1.93 2.05 2.12 2.34 2.53 2.56 2.54 2.62
1.13 1.15 1.11 1.13 1.32 1.35 0.95 0.92 1.13 1.35 1.18 0.99 0.92 0.85 0.74 0.72 0.76 0.86 0.86 0.82 0.81 0.84 0.98 1.08 1.21 1.29 1.34 1.45 1.54 1.60 1.67 1.75 1.85 1.89 1.97 2.06 2.24 2.18 2.24 2.51 2.57 2.68 2.82 2.83
1.14 1.19 1.22 1.30 1.41 1.28 1.13 1.25 1.30 1.19 1.23 1.16 1.01 1.00 0.88 0.83 0.77 0.75 0.79 0.83 0.89 0.89 0.95 1.11 1.16 1.25 1.39 1.52 1.63 1.83 1.91 1.91 1.99 2.07 2.13 2.28 2.46 2.60 2.67 2.82 2.91 2.89 2.86 2.82
1.28 1.12 1.29 1.47 1.55 1.44 1.49 1.45 1.38 1.33 1.30 1.16 0.98 0.99 0.95 0.86 0.77 0.77 0.84 0.87 0.86 0.88 0.92 1.03 1.11 1.25 1.38 1.50 1.69 1.91 1.96 1.90 2.01 2.16 2.21 2.34 2.49 2.59 2.67 2.85 2.90 2.88 2.84 2.83
1.49 1.43 1.69 1.89 1.88 1.89 1.89 1.72 1.48 1.34 1.22 1.12 1.02 0.99 0.95 0.92 0.90 0.84 0.87 0.96 0.88 0.82 0.90 1.04 1.08 1.18 1.30 1.33 1.51 1.74 1.91 1.99 2.15 2.28 2.36 2.49 2.64 2.75 2.84 2.77 2.83 2.90 2.89 2.78
1.59 1.73 1.96 2.15 1.98 1.94 2.00 1.76 1.47 1.41 1.43 1.36 1.33 1.29 1.19 1.11 1.08 0.99 0.90 0.92 0.88 0.86 0.94 1.11 1.16 1.19 1.25 1.28 1.42 1.57 1.81 2.01 2.29 2.34 2.39 2.49 2.58 2.73 2.74 2.72 2.66 2.62 2.52 2.48